User: anonymous   Login
Location: Lugano
(46.0000°N, 8.9670°E)
Time: 17:07:40
(UTC+02:00)
Language:

Envisat - Orbit

View from above orbital plane
View from above orbital plane
View from above satellite
View from above satellite

Ground track
Ground track

The orbit is defined by the following mean orbital elements,

1 27386U          26109.30907535 +.00000000 +00000-0 +31401-4 0 00002
2 27386  98.3791  61.9565 0001151  85.4373  87.1097 14.39050190    09
Epoch (UTC): 19 April 2026 07:25:04
Eccentricity: 0.0001151
inclination: 98.3791°
perigee height: 761 km
apogee height: 762 km
right ascension of ascending node: 61.9565°
argument of perigee: 85.4373°
revolutions per day: 14.39050190
mean anomaly at epoch: 87.1097°

The dashed part of the orbit path shows where the satellite is in the earth's shadow,  

DLR